STARLINK-35948, 66633

Orbit data source: Space-Track

STARLINK-35948, 66633 is a payload satellite owned by SpaceX/Seattle (US) in LEO that was launched on Sun, 23 Nov 2025 UTC via an FALCON 9 launch vehicle from the Air Force Western Test Range (AFWTR). Payload-class satellites include a variety of spacecraft equipped with specific instruments for various scientific and technological missions. These include communications satellites like Starlink; space stations such as the ISS; scientific satellites like the Hubble; Earth observation satellites from companies like Planet Labs, Umbra, and HawkEye 360; GPS; miniature CubeSats for education and research; and military/defense satellites.

Loading next visibility...
Identifier
66633, 2025-271S
Orbit
LEO
Country
Flag of USUS
Related business
Manufacturer
SpaceX/Seattle
Mission
Operational Commercial Communications
Bus & Motor
STARLINK V2MO, Unknown motor
Mass
575 kg wet, ~530 kg dry
Launch date (UTC)
2025-11-23 (2 months ago)
Launch vehicle
FALCON 9
Launch site
Air Force Western Test Range (AFWTR)
Object type
Payload
Rocket body
Debris
Shape & HBR
Box + 2 Pan, 17.7 m
Radar Cross Section
36.964 m²

Expand to show TLE details & history
Last TLE update: 4 hours ago

TLE from 4 hours ago
0 STARLINK-35948
1 66633U 25271S   26037.11910489  .00017800  00000-0  61187-3 0  9994
2 66633  53.1558 286.5432 0001135  72.9423 287.1702 15.30189688 12739
Epoch: 2026-02-06T02:51Z
TLE epoch observation values (Epoch: 2026-02-06T02:51:30.662Z)
Latitude
-0.00002°
Longitude
107.40387°
Altitude
475.916 km
Speed
7.629 km/s
True Right ascension
19h 06m 10s
True Declination
0° 00' 00"
Sunlit
Object was in daylight at epoch
Visualization orbit readout
Latitude
Unknown
Longitude
Unknown
Altitude
Unknown
Speed
Unknown
Apparent Right ascension
Unknown
Apparent Declination
Unknown
Sunlit
N/A
Visualization observer readout
Local Sidereal Time
09:12:48
Azimuth
Unknown
Elevation
Unknown
Doppler factor
Unknown
Orbital elements
Apogee altitude
476.281 km
Perigee altitude
474.725 km
Semi-major axis
6,853.64 km
Eccentricity
0.00011
Inclination
53.1558°
RAAN
286.5432°
Arg. of periapsis
72.9423°
True anomaly
287.15777°
Mean anomaly
287.1702°
Eccentric anomaly
287.16399°
Mean motion
3.82526 °/min
Orbital period
94.11 mins
BSTAR
0.00061187
Loading maneuver chart data...
Computing Atmospheric mass density...
Loading historical data...
Loading historical data...
Loading historical data...
Loading historical data...
Loading historical data...
Loading historical data...
Loading historical data...

Documentation

Showing up to 5 results
|